User: anonymous   Login
Location: Solstice Park, West Seattle
(47.5363°N, 122.3905°W)
Time: 08:31:08
(UTC-07:00)
Language:

ISS - Orbit

View from above orbital plane
View from above orbital plane
View from above satellite
View from above satellite

Ground track
Ground track

The orbit data is extracted from the following two-line orbital elements,

1 25544U 98067A   21169.52366691  .00001463  00000-0  34713-4 0  9993
2 25544  51.6450 336.1136 0003514 106.0446 358.8609 15.48998553288802
Epoch (UTC): 18 June 2021 12:34:04
Eccentricity: 0.0003514
inclination: 51.6450°
perigee height: 417 km
apogee height: 422 km
right ascension of ascending node: 336.1136°
argument of perigee: 106.0446°
revolutions per day: 15.48998553
mean anomaly at epoch: 358.8609°
orbit number at epoch: 28880

The dashed part of the orbit path shows where the satellite is in the earth's shadow,  

DLR